Tracking 22441 objects as of 1-Mar-2021
HD Live streaming from Space Station
objects crossing your sky now

INTELSAT 3-F4

Track INTELSAT 3-F4 now!
INTELSAT 3-F4 is classified as:


NORAD ID: 3947
Int'l Code: 1969-045A
Perigee: 38,803.0 km
Apogee: 39,054.7 km
Inclination: 9.0 °
Period: 1,599.2 minutes
Semi major axis: 45299 km
RCS: 2.5125 m2 (large)
Launch date: May 22, 1969
Source: International Telecommunications Satellite Organization (ITSO)
Launch site: AIR FORCE EASTERN TEST RANGE (AFETR)
aabbcc
Your satellite tracking list
Your tracking list is empty




NASA's NSSDC Master Catalog

Two Line Element Set (TLE):
1  3947U 69045A   21058.48165567 -.00000125  00000-0  00000+0 0  9993
2  3947   8.9829 301.2906 0027785  39.2431 141.5687  0.90044710141758
Source of the keplerian elements: AFSPC